Change the Weather History Date:

Saturday, June 7, 2014

  Actual Average Record
Temperature  
Mean Temperature 72 °F -  
Max Temperature 82 °F 81 °F 84 °F (1981)
Min Temperature 61 °F 64 °F 57 °F (1955)
Cooling Degree Days 6    
Growing Degree Days 22 (Base 50)    
Moisture  
Dew Point 63 °F    
Average Humidity 71    
Maximum Humidity 93    
Minimum Humidity 54    
Precipitation  
Precipitation 0.00 in - - ()
Sea Level Pressure  
Sea Level Pressure 30.01 in    
Wind  
Wind Speed 6 mph (NE)    
Max Wind Speed 20 mph    
Max Gust Speed 25 mph    
Visibility 10 miles    
Events      
Averages and records for this station are not official NWS values.
T = Trace of Precipitation, MM = Missing Value Source: NWS Daily Summary

Daily Weather History Graph

Daily Weather History Graph

Search for Another Location

Airport or City:

Trip Planner

Search our weather history database for the weather conditions in past years. The results will help you decide how hot, cold, wet, or windy it might be!

Date:

Astronomy

Jun. 07, 2014 Rise Set
Actual Time 5:46 AM HST 7:07 PM HST
Civil Twilight 5:21 AM HST 7:32 PM HST
Nautical Twilight 4:52 AM HST 8:01 PM HST
Astronomical Twilight 4:21 AM HST 8:31 PM HST
Moon 2:12 PM HST (6/7) 1:33 AM HST (6/7)
Length of Visible Light 14h 10m
Length of Day
13h 21m
Waxing Gibbous, 70% of the Moon is Illuminated
Jun 7
Waxing Gibbous
Jun 12
Full
Jun 19
Last Quarter
Jun 26
New
Jul 5
First Quarter

Hourly Weather History & Observations

Time (HST) Temp. Heat Index Dew Point Humidity Pressure Visibility Wind Dir Wind Speed Gust Speed Precip Events Conditions
12:56 AM 65.8 °F - 61.9 °F 87% 30.00 in 10.0 mi Calm Calm - N/A   Clear
1:56 AM 66.2 °F - 60.8 °F 83% 30.04 in 10.0 mi NNE 3.5 mph - N/A   Clear
2:56 AM 63.0 °F - 61.0 °F 93% 29.98 in 10.0 mi East 4.6 mph - N/A   Clear
3:56 AM 61.9 °F - 59.9 °F 93% 29.98 in 10.0 mi ENE 4.6 mph - N/A   Clear
4:56 AM 64.9 °F - 61.9 °F 90% 29.99 in 10.0 mi NNE 5.8 mph - N/A   Clear
5:56 AM 65.8 °F - 63.9 °F 93% 29.99 in 10.0 mi NE 9.2 mph - N/A   Clear
6:56 AM 68.9 °F - 63.9 °F 84% 30.01 in 10.0 mi East 6.9 mph - N/A   Clear
7:56 AM 73.9 °F - 63.9 °F 71% 30.03 in 10.0 mi SSE 4.6 mph - N/A   Clear
8:56 AM 74.8 °F - 63.0 °F 66% 30.03 in 10.0 mi SSW 3.5 mph - N/A   Partly Cloudy
9:56 AM 77.0 °F - 63.9 °F 64% 30.03 in 10.0 mi NW 3.5 mph - N/A   Mostly Cloudy
10:06 AM 80.6 °F 82.3 °F 64.4 °F 58% 30.08 in 10.0 mi West 6.9 mph - N/A   Scattered Clouds
10:56 AM 78.8 °F - 62.6 °F 57% 30.08 in 10.0 mi SSW 6.9 mph - N/A   Mostly Cloudy
11:03 AM 78.8 °F - 64.4 °F 61% 30.08 in 10.0 mi SSW 6.9 mph - N/A   Mostly Cloudy
11:46 AM 78.8 °F - 62.6 °F 57% 30.08 in 10.0 mi Variable 4.6 mph - N/A   Overcast
11:56 AM 79.0 °F - 61.9 °F 56% 30.02 in 10.0 mi Calm Calm - N/A   Overcast
12:56 PM 79.0 °F - 61.9 °F 56% 30.01 in 10.0 mi Calm Calm - N/A   Overcast
1:13 PM 78.8 °F - 62.6 °F 57% 30.05 in 10.0 mi West 4.6 mph - N/A   Overcast
1:46 PM 78.8 °F - 62.6 °F 57% 30.04 in 10.0 mi Variable 4.6 mph - N/A   Overcast
1:56 PM 82.4 °F 83.9 °F 64.4 °F 54% 30.04 in 10.0 mi Variable 4.6 mph - N/A   Mostly Cloudy
2:09 PM 78.8 °F - 62.6 °F 57% 30.04 in 4.0 mi NE 11.5 mph 19.6 mph N/A   Haze
2:23 PM 80.6 °F 82.3 °F 64.4 °F 58% 30.03 in 10.0 mi NE 15.0 mph 20.7 mph N/A   Overcast
2:56 PM 81.9 °F 83.5 °F 64.9 °F 56% 29.96 in 10.0 mi NE 16.1 mph 24.2 mph N/A   Partly Cloudy
3:56 PM 77.9 °F - 63.0 °F 60% 29.96 in 10.0 mi SSW 8.1 mph - N/A   Mostly Cloudy
4:39 PM 77.0 °F - 64.4 °F 65% 30.01 in 10.0 mi NE 17.3 mph - N/A   Overcast
4:56 PM 79.0 °F - 64.9 °F 62% 29.95 in 10.0 mi NE 19.6 mph 25.3 mph N/A   Scattered Clouds
5:56 PM 74.8 °F - 64.9 °F 71% 29.96 in 10.0 mi NE 19.6 mph - N/A   Clear
6:56 PM 72.0 °F - 63.9 °F 76% 29.97 in 10.0 mi ENE 12.7 mph - N/A   Clear
7:56 PM 70.9 °F - 63.0 °F 76% 29.99 in 10.0 mi NNE 11.5 mph - N/A   Clear
8:56 PM 68.9 °F - 63.9 °F 84% 30.01 in 10.0 mi NE 11.5 mph - N/A   Clear
9:56 PM 68.9 °F - 63.9 °F 84% 30.02 in 10.0 mi NE 8.1 mph - N/A   Clear
10:56 PM 68.9 °F - 64.9 °F 87% 30.01 in 10.0 mi NE 10.4 mph - N/A   Clear
11:56 PM 66.9 °F - 64.9 °F 93% 30.00 in 10.0 mi East 6.9 mph - N/A   Clear